Zurück zum Katalog

STARLINK-37581

AktivKommunikationVLEO
NORAD 69366·PAYLOAD·🇺🇸 United States

Gestartet Jun 4, 2026 von Cape Canaveral Space Force Station

Loading…

Nächste Überflüge (nächste 24 Stunden)

TLE

AktuellSource: CelesTrak SupGP

Epoche: Sep 14, 2026, 23:28 UTC

1 69366C 26123P   26257.97826389 -.00027002  00000+0 -79805-3 0  2579
2 69366  53.1578 167.5794 0001258  75.9003 207.3350 15.34392863    15

Verfolge STARLINK-37581 in Echtzeit mit AllMySat

Download on the App Store